JCSAT-18 (KACIFIC 1)

Last updated on Sun Apr 12 2026 00:02:55 GMT+0000 (Coordinated Universal Time)

1 44868U 19091A 26101.35877803 -.00000199 00000+0 00000+0 0 9999 2 44868 0.0329 342.7922 0000144 85.1155 50.8360 1.00272228 23347
UTC large
Height (km)
Speed (km/s)
/
Latitude / Longitude
Inclination (degrees)
Orbital Period (minutes)
Azimuth
Elevation
Range (km)
Doppler Factor

Next 0 passes for location: London (51.5072 / 0.1276)

Sorry there are no passes over London.
JCSAT-18 (KACIFIC 1)